Location: Newark
(18.1281°S, 69.1289°W)
Time: 18:57:36
(UTC+00:00)

Envisat - Visible Passes

Search period start: 15 December 2019 00:00
Search period end: 25 December 2019 00:00
Orbit: 764 x 766 km, 98.1° (Epoch: 15 December)

Date Brightness Start Highest point End Pass type
(mag) Time Alt. Az. Time Alt. Az. Time Alt. Az.
16 Dec 6.0 00:16:00 10° SSW 00:19:10 17° WSW 00:22:21 10° WNW visible
16 Dec 4.4 23:37:49 10° S 23:42:40 44° WSW 23:47:27 10° NNW visible
19 Dec 5.7 00:04:06 10° SSW 00:07:59 22° WSW 00:11:52 10° WNW visible
19 Dec 3.8 23:26:24 10° S 23:31:25 59° WSW 23:36:24 10° NNW visible
21 Dec 6.4 00:32:00 10° WSW 00:33:14 11° WSW 00:34:29 10° W visible
21 Dec 5.2 23:52:24 10° SSW 23:56:47 29° WSW 00:01:08 10° NW visible
24 Dec 6.1 00:19:15 10° SW 00:22:04 15° WSW 00:24:52 10° WNW visible
24 Dec 4.7 23:40:50 10° S 23:45:34 39° WSW 23:50:16 10° NW visible
